SV2BZQ-2 Weather Reports


Display with metric or nautical units.
time (UTC)temp
F
wind
direction
speed
MPH
gust
MPH
rain 1hr
in
rain 24hr
in
rain mn
in
humidity
%
barometer
mb
20260506143049 76 164 5.0 11.0 0.00 0.00 0.00 60 1012.8
20260506142917 76 231 4.0 11.0 0.00 0.00 0.00 59 1012.8
20260506142902 76 173 4.0 11.0 0.00 0.00 0.00 59 1012.8
20260506142747 76 180 4.0 10.0 0.00 0.00 0.00 61 1012.8
20260506142612 76 195 4.0 10.0 0.00 0.00 0.00 60 1012.6
20260506142138 76 267 4.0 10.0 0.00 0.00 0.00 60 1012.7
20260506142018 76 206 5.0 10.0 0.00 0.00 0.00 60 1012.7
20260506141846 76 146 4.0 10.0 0.00 0.00 0.00 60 1012.8
20260506141820 76 196 4.0 10.0 0.00 0.00 0.00 60 1012.8
20260506141649 76 165 5.0 10.0 0.00 0.00 0.00 60 1012.7
20260506141521 76 171 5.0 10.0 0.00 0.00 0.00 59 1012.8
20260506141425 76 156 5.0 10.0 0.00 0.00 0.00 60 1012.8
20260506141325 76 203 5.0 10.0 0.00 0.00 0.00 60 1012.8
20260506141133 76 198 5.0 9.0 0.00 0.00 0.00 60 1012.8
20260506140959 76 195 5.0 11.0 0.00 0.00 0.00 60 1012.8
20260506140553 76 206 5.0 13.0 0.00 0.00 0.00 60 1012.8
20260506140422 76 210 6.0 13.0 0.00 0.00 0.00 60 1012.8
20260506135943 76 146 6.0 13.0 0.00 0.00 0.00 61 1012.8
20260506135802 76 197 6.0 13.0 0.00 0.00 0.00 60 1012.8
20260506135622 77 219 6.0 14.0 0.00 0.00 0.00 60 1012.8
20260506135250 54 333 1.0 4.0 0.00 0.00 0.00 86 1013.7
20260506135205 77 167 6.0 14.0 0.00 0.00 0.00 60 1012.8
20260506135006 77 219 6.0 14.0 0.00 0.00 0.00 60 1012.8
20260506134858 77 135 6.0 14.0 0.00 0.00 0.00 59 1012.8
20260506134815 77 192 6.0 14.0 0.00 0.00 0.00 59 1012.8
20260506134620 77 180 6.0 14.0 0.00 0.00 0.00 58 1012.8
20260506134542 55 311 2.0 4.0 0.00 0.00 0.00 85 1013.4
20260506134419 78 182 5.0 13.0 0.00 0.00 0.00 58 1012.8
20260506134402 78 207 5.0 13.0 0.00 0.00 0.00 58 1012.8
20260506134239 78 168 5.0 13.0 0.00 0.00 0.00 57 1012.8
20260506134054 78 168 5.0 13.0 0.00 0.00 0.00 57 1012.8
20260506133945 78 154 5.0 13.0 0.00 0.00 0.00 56 1012.8
20260506133853 78 163 5.0 13.0 0.00 0.00 0.00 56 1012.8
20260506133719 78 168 4.0 10.0 0.00 0.00 0.00 56 1012.8
20260506133400 78 146 4.0 10.0 0.00 0.00 0.00 57 1012.8
20260506133347 78 175 4.0 10.0 0.00 0.00 0.00 57 1012.8
20260506133203 78 168 4.0 10.0 0.00 0.00 0.00 56 1012.7
20260506133034 78 155 4.0 11.0 0.00 0.00 0.00 57 1012.8
20260506132944 78 172 5.0 11.0 0.00 0.00 0.00 58 1012.8
20260506132849 78 210 5.0 11.0 0.00 0.00 0.00 58 1012.8
20260506132605 78 209 5.0 11.0 0.00 0.00 0.00 58 1012.7
20260506132411 78 229 5.0 11.0 0.00 0.00 0.00 57 1012.8
20260506132349 78 219 5.0 11.0 0.00 0.00 0.00 57 1012.8
20260506132217 78 157 5.0 11.0 0.00 0.00 0.00 57 1012.8
20260506132009 78 130 5.0 10.0 0.00 0.00 0.00 57 1012.8
20260506131900 78 173 5.0 10.0 0.00 0.00 0.00 56 1012.8
20260506131829 79 151 5.0 10.0 0.00 0.00 0.00 56 1012.9
20260506131652 79 163 5.0 10.0 0.00 0.00 0.00 56 1012.9
20260506131517 79 117 4.0 10.0 0.00 0.00 0.00 55 1012.9
20260506131504 79 173 4.0 10.0 0.00 0.00 0.00 55 1012.9
20260506131327 79 200 4.0 10.0 0.00 0.00 0.00 56 1013.0
20260506131136 79 119 4.0 9.0 0.00 0.00 0.00 56 1013.0
20260506131033 79 165 4.0 9.0 0.00 0.00 0.00 56 1012.9
20260506131004 79 232 4.0 10.0 0.00 0.00 0.00 55 1012.9
20260506130827 79 176 4.0 10.0 0.00 0.00 0.00 55 1013.1
20260506130654 78 141 4.0 10.0 0.00 0.00 0.00 57 1013.0
20260506130240 78 187 4.0 10.0 0.00 0.00 0.00 57 1013.0
20260506130036 78 154 5.0 10.0 0.00 0.00 0.00 56 1013.1
20260506125936 78 180 5.0 10.0 0.00 0.00 0.00 56 1013.1
20260506125837 78 219 5.0 10.0 0.00 0.00 0.00 55 1013.1
20260506125651 78 168 5.0 11.0 0.00 0.00 0.00 56 1013.1
20260506125511 78 194 5.0 11.0 0.00 0.00 0.00 55 1013.1
20260506125457 78 148 5.0 11.0 0.00 0.00 0.00 55 1013.1
20260506125319 78 99 5.0 11.0 0.00 0.00 0.00 55 1013.1
20260506125116 79 168 5.0 11.0 0.00 0.00 0.00 54 1013.1
20260506125026 79 207 5.0 11.0 0.00 0.00 0.00 54 1013.1
20260506124950 79 203 5.0 11.0 0.00 0.00 0.00 54 1013.1
20260506124814 79 177 5.0 11.0 0.00 0.00 0.00 54 1013.2
20260506124620 79 203 5.0 11.0 0.00 0.00 0.00 54 1013.2
20260506124225 79 180 5.0 11.0 0.00 0.00 0.00 54 1013.2
20260506124019 79 173 5.0 11.0 0.00 0.00 0.00 53 1013.1
20260506123919 79 155 5.0 11.0 0.00 0.00 0.00 52 1013.1
20260506123840 79 138 4.0 11.0 0.00 0.00 0.00 53 1013.1
20260506123714 79 196 4.0 10.0 0.00 0.00 0.00 52 1013.2
20260506123536 79 183 4.0 10.0 0.00 0.00 0.00 52 1013.2
20260506123521 79 232 4.0 11.0 0.00 0.00 0.00 52 1013.2
20260506123412 79 130 5.0 11.0 0.00 0.00 0.00 52 1013.2
20260506123201 79 180 5.0 12.0 0.00 0.00 0.00 53 1013.2
20260506123056 79 141 5.0 12.0 0.00 0.00 0.00 53 1013.2
20260506123022 79 173 5.0 12.0 0.00 0.00 0.00 53 1013.2
20260506122837 79 183 5.0 12.0 0.00 0.00 0.00 53 1013.2
20260506122645 79 151 5.0 12.0 0.00 0.00 0.00 54 1013.1
20260506122633 79 159 5.0 12.0 0.00 0.00 0.00 54 1013.1
20260506122508 79 202 5.0 12.0 0.00 0.00 0.00 54 1013.2
20260506122338 79 180 5.0 10.0 0.00 0.00 0.00 54 1013.2
20260506122252 79 196 5.0 10.0 0.00 0.00 0.00 55 1013.2
20260506122156 79 259 5.0 10.0 0.00 0.00 0.00 55 1013.2
20260506122004 79 177 5.0 10.0 0.00 0.00 0.00 55 1013.2
20260506121734 79 171 5.0 16.0 0.00 0.00 0.00 54 1013.3
20260506121709 79 156 5.0 16.0 0.00 0.00 0.00 54 1013.3
20260506121517 79 184 5.0 16.0 0.00 0.00 0.00 53 1013.3
20260506121336 79 221 5.0 16.0 0.00 0.00 0.00 53 1013.3
20260506121247 79 169 5.0 16.0 0.00 0.00 0.00 53 1013.3
20260506121145 79 130 5.0 16.0 0.00 0.00 0.00 53 1013.3
20260506120901 79 231 5.0 16.0 0.00 0.00 0.00 52 1013.3
20260506120648 79 150 5.0 10.0 0.00 0.00 0.00 52 1013.3
20260506120642 79 113 5.0 10.0 0.00 0.00 0.00 52 1013.3
20260506120506 80 155 5.0 10.0 0.00 0.00 0.00 52 1013.4
20260506120235 80 157 5.0 11.0 0.00 0.00 0.00 52 1013.3
20260506120137 80 199 5.0 11.0 0.00 0.00 0.00 52 1013.4
20260506120019 80 200 4.0 11.0 0.00 0.00 0.00 52 1013.4
20260506115712 80 100 5.0 11.0 0.00 0.00 0.00 51 1013.3
20260506115530 80 122 5.0 11.0 0.00 0.00 0.00 51 1013.3
20260506115510 80 111 5.0 11.0 0.00 0.00 0.00 51 1013.4
20260506115240 80 198 5.0 11.0 0.00 0.00 0.00 50 1013.4
20260506115031 80 202 4.0 10.0 0.00 0.00 0.00 50 1013.4
20260506114934 80 117 4.0 10.0 0.00 0.00 0.00 50 1013.4
20260506114846 80 214 4.0 10.0 0.00 0.00 0.00 51 1013.4
20260506114657 80 184 4.0 10.0 0.00 0.00 0.00 51 1013.5
20260506114503 80 178 4.0 10.0 0.00 0.00 0.00 50 1013.5
20260506114433 80 212 4.0 10.0 0.00 0.00 0.00 50 1013.5
20260506114304 80 165 4.0 10.0 0.00 0.00 0.00 49 1013.5
20260506114126 80 19 4.0 10.0 0.00 0.00 0.00 49 1013.5
20260506114037 80 194 4.0 10.0 0.00 0.00 0.00 49 1013.5
20260506113927 80 146 4.0 10.0 0.00 0.00 0.00 49 1013.5
20260506113703 80 188 4.0 10.0 0.00 0.00 0.00 48 1013.5
20260506113435 80 130 4.0 10.0 0.00 0.00 0.00 49 1013.5
20260506113425 80 139 4.0 10.0 0.00 0.00 0.00 49 1013.5
20260506113125 80 117 3.0 10.0 0.00 0.00 0.00 50 1013.5
20260506112910 80 210 3.0 8.0 0.00 0.00 0.00 50 1013.5
20260506112822 80 214 3.0 8.0 0.00 0.00 0.00 50 1013.5
20260506112707 80 123 4.0 8.0 0.00 0.00 0.00 50 1013.5
20260506112518 80 161 4.0 9.0 0.00 0.00 0.00 50 1013.5
20260506112346 80 200 4.0 9.0 0.00 0.00 0.00 49 1013.5
20260506112331 80 210 4.0 9.0 0.00 0.00 0.00 49 1013.5
20260506112144 80 180 4.0 9.0 0.00 0.00 0.00 49 1013.5
20260506111951 80 162 5.0 9.0 0.00 0.00 0.00 48 1013.6
20260506111849 80 202 4.0 9.0 0.00 0.00 0.00 48 1013.6
20260506111755 80 167 4.0 9.0 0.00 0.00 0.00 48 1013.6
20260506111546 80 117 4.0 9.0 0.00 0.00 0.00 48 1013.6
20260506111430 80 207 4.0 9.0 0.00 0.00 0.00 47 1013.7
20260506111419 80 202 4.0 9.0 0.00 0.00 0.00 47 1013.7
20260506111254 80 159 4.0 8.0 0.00 0.00 0.00 47 1013.7
20260506111053 80 130 4.0 9.0 0.00 0.00 0.00 47 1013.7
20260506111018 80 138 4.0 9.0 0.00 0.00 0.00 47 1013.7
20260506110927 80 161 4.0 10.0 0.00 0.00 0.00 47 1013.6
20260506110758 80 154 4.0 10.0 0.00 0.00 0.00 46 1013.7
20260506110602 80 118 4.0 10.0 0.00 0.00 0.00 47 1013.7
20260506110546 80 192 4.0 10.0 0.00 0.00 0.00 47 1013.7
20260506110431 80 161 4.0 10.0 0.00 0.00 0.00 46 1013.7
20260506110240 80 111 4.0 10.0 0.00 0.00 0.00 45 1013.7
20260506110205 80 76 4.0 10.0 0.00 0.00 0.00 46 1013.7
20260506110007 80 161 3.0 9.0 0.00 0.00 0.00 46 1013.7
20260506105850 80 180 3.0 9.0 0.00 0.00 0.00 45 1013.8
20260506105749 80 157 3.0 9.0 0.00 0.00 0.00 46 1013.8
20260506105735 80 144 3.0 9.0 0.00 0.00 0.00 46 1013.8
20260506105606 80 217 3.0 9.0 0.00 0.00 0.00 46 1013.7
20260506105442 80 194 3.0 9.0 0.00 0.00 0.00 45 1013.7
20260506105039 80 153 3.0 9.0 0.00 0.00 0.00 45 1013.7
20260506104919 80 156 4.0 8.0 0.00 0.00 0.00 45 1013.8
20260506104757 80 183 4.0 9.0 0.00 0.00 0.00 45 1013.8
20260506104734 80 134 4.0 9.0 0.00 0.00 0.00 45 1013.8
20260506104609 80 213 4.0 9.0 0.00 0.00 0.00 45 1013.8
20260506104418 80 195 4.0 9.0 0.00 0.00 0.00 45 1013.8
20260506104355 80 138 4.0 9.0 0.00 0.00 0.00 45 1013.8
20260506104302 80 126 4.0 9.0 0.00 0.00 0.00 45 1013.8
20260506104139 80 138 3.0 9.0 0.00 0.00 0.00 45 1013.8
20260506103727 80 155 4.0 9.0 0.00 0.00 0.00 46 1013.8
20260506103549 80 299 4.0 9.0 0.00 0.00 0.00 46 1013.8
20260506103417 79 180 4.0 9.0 0.00 0.00 0.00 46 1013.8
20260506103042 79 157 4.0 9.0 0.00 0.00 0.00 45 1013.8
20260506102854 80 148 4.0 9.0 0.00 0.00 0.00 45 1013.8
20260506102502 80 152 4.0 9.0 0.00 0.00 0.00 45 1013.8
20260506102326 79 188 4.0 9.0 0.00 0.00 0.00 45 1013.9
20260506102141 80 191 5.0 9.0 0.00 0.00 0.00 44 1013.9
20260506102122 80 148 5.0 9.0 0.00 0.00 0.00 44 1013.9
20260506102003 80 242 4.0 9.0 0.00 0.00 0.00 44 1014.0
20260506101812 80 146 4.0 9.0 0.00 0.00 0.00 44 1014.0
20260506101650 80 132 3.0 8.0 0.00 0.00 0.00 45 1013.9
20260506101605 80 92 3.0 8.0 0.00 0.00 0.00 45 1014.0
20260506101437 80 145 3.0 8.0 0.00 0.00 0.00 45 1014.0
20260506101255 80 153 3.0 8.0 0.00 0.00 0.00 45 1013.9
20260506101221 80 153 3.0 8.0 0.00 0.00 0.00 44 1013.9
20260506101107 79 174 3.0 8.0 0.00 0.00 0.00 43 1014.0
20260506100938 79 232 3.0 8.0 0.00 0.00 0.00 41 1014.0
20260506100834 79 219 3.0 8.0 0.00 0.00 0.00 41 1014.0
20260506100802 79 178 3.0 8.0 0.00 0.00 0.00 41 1014.1
20260506100629 79 167 3.0 7.0 0.00 0.00 0.00 41 1014.1
20260506100510 79 231 3.0 7.0 0.00 0.00 0.00 41 1014.1
20260506100459 79 272 3.0 7.0 0.00 0.00 0.00 41 1014.1
20260506100321 79 237 4.0 9.0 0.00 0.00 0.00 42 1014.1
20260506100206 79 126 3.0 9.0 0.00 0.00 0.00 42 1014.1
20260506100119 80 146 3.0 9.0 0.00 0.00 0.00 42 1014.2
20260506100038 80 146 3.0 9.0 0.00 0.00 0.00 42 1014.2
20260506095917 80 146 3.0 9.0 0.00 0.00 0.00 42 1014.2
20260506095807 80 148 3.0 9.0 0.00 0.00 0.00 42 1014.2
20260506095756 80 150 3.0 9.0 0.00 0.00 0.00 42 1014.2
20260506095613 79 97 3.0 8.0 0.00 0.00 0.00 43 1014.2
20260506095503 79 124 3.0 8.0 0.00 0.00 0.00 43 1014.2
20260506095054 79 138 3.0 8.0 0.00 0.00 0.00 43 1014.2
20260506094926 79 134 3.0 8.0 0.00 0.00 0.00 43 1014.2
20260506094756 79 134 3.0 7.0 0.00 0.00 0.00 43 1014.2
20260506094746 79 115 3.0 7.0 0.00 0.00 0.00 43 1014.2
20260506094606 79 103 3.0 8.0 0.00 0.00 0.00 44 1014.2
20260506094451 79 103 3.0 8.0 0.00 0.00 0.00 44 1014.2
20260506094404 79 252 3.0 8.0 0.00 0.00 0.00 44 1014.1
20260506094311 78 182 4.0 8.0 0.00 0.00 0.00 46 1014.1
20260506094107 78 148 4.0 10.0 0.00 0.00 0.00 47 1014.1
20260506093941 78 120 4.0 10.0 0.00 0.00 0.00 47 1014.1
20260506093907 78 138 4.0 10.0 0.00 0.00 0.00 47 1014.1
20260506093719 78 153 4.0 10.0 0.00 0.00 0.00 47 1014.1
20260506093520 78 179 4.0 10.0 0.00 0.00 0.00 48 1014.1
20260506093448 78 190 4.0 10.0 0.00 0.00 0.00 48 1014.1
20260506093410 78 99 4.0 10.0 0.00 0.00 0.00 47 1014.1
20260506093235 78 146 4.0 9.0 0.00 0.00 0.00 47 1014.2
20260506093103 78 149 4.0 9.0 0.00 0.00 0.00 48 1014.2
20260506092942 78 109 3.0 8.0 0.00 0.00 0.00 48 1014.2
20260506092756 78 203 3.0 9.0 0.00 0.00 0.00 49 1014.2
20260506092426 78 183 3.0 9.0 0.00 0.00 0.00 48 1014.2
20260506092214 78 215 3.0 9.0 0.00 0.00 0.00 49 1014.1
20260506091842 78 148 4.0 9.0 0.00 0.00 0.00 49 1014.1
20260506091714 78 128 3.0 9.0 0.00 0.00 0.00 49 1014.1
20260506091535 78 142 3.0 8.0 0.00 0.00 0.00 50 1014.1
20260506091456 78 108 3.0 7.0 0.00 0.00 0.00 51 1014.1
20260506091406 78 131 3.0 7.0 0.00 0.00 0.00 51 1014.1
20260506091153 78 218 3.0 7.0 0.00 0.00 0.00 51 1014.1
20260506091028 78 253 2.0 7.0 0.00 0.00 0.00 51 1014.1
20260506090957 78 235 2.0 7.0 0.00 0.00 0.00 51 1014.1
20260506090811 77 123 3.0 7.0 0.00 0.00 0.00 51 1014.1
20260506090556 77 157 3.0 7.0 0.00 0.00 0.00 52 1014.1
20260506090201 77 188 3.0 9.0 0.00 0.00 0.00 53 1014.1
20260506090012 77 246 4.0 9.0 0.00 0.00 0.00 53 1014.1
20260506085836 77 247 3.0 9.0 0.00 0.00 0.00 53 1014.1
20260506085815 77 205 3.0 9.0 0.00 0.00 0.00 53 1014.1
20260506085544 77 238 3.0 9.0 0.00 0.00 0.00 52 1014.2
20260506085400 77 219 3.0 9.0 0.00 0.00 0.00 52 1014.1
20260506085321 77 222 2.0 9.0 0.00 0.00 0.00 52 1014.1
20260506085152 76 204 2.0 7.0 0.00 0.00 0.00 52 1014.1
20260506084941 76 158 2.0 5.0 0.00 0.00 0.00 52 1014.1
20260506084556 76 126 2.0 5.0 0.00 0.00 0.00 52 1014.2
20260506084348 75 103 2.0 5.0 0.00 0.00 0.00 53 1014.1
20260506084230 75 178 2.0 5.0 0.00 0.00 0.00 53 1014.1
20260506084213 75 172 2.0 5.0 0.00 0.00 0.00 53 1014.1
20260506084107 75 173 2.0 6.0 0.00 0.00 0.00 53 1014.1
20260506083941 74 148 2.0 6.0 0.00 0.00 0.00 52 1014.1
20260506083809 74 149 2.0 6.0 0.00 0.00 0.00 52 1014.1
20260506083631 74 149 2.0 6.0 0.00 0.00 0.00 53 1014.1
20260506083306 74 222 1.0 6.0 0.00 0.00 0.00 53 1014.1
20260506082949 74 157 1.0 6.0 0.00 0.00 0.00 54 1014.1
20260506082930 74 236 1.0 6.0 0.00 0.00 0.00 54 1014.1
20260506082759 74 309 1.0 4.0 0.00 0.00 0.00 54 1014.1
20260506082551 73 327 1.0 4.0 0.00 0.00 0.00 54 1014.0
20260506082406 73 95 1.0 4.0 0.00 0.00 0.00 54 1014.0
20260506082343 73 95 1.0 4.0 0.00 0.00 0.00 54 1014.1
20260506082127 73 98 2.0 5.0 0.00 0.00 0.00 53 1014.0
20260506082019 73 317 2.0 5.0 0.00 0.00 0.00 53 1014.0
20260506081957 73 346 2.0 5.0 0.00 0.00 0.00 54 1014.1
20260506081828 73 298 2.0 5.0 0.00 0.00 0.00 55 1014.1
20260506081622 73 153 3.0 5.0 0.00 0.00 0.00 56 1014.1
20260506081521 72 203 3.0 6.0 0.00 0.00 0.00 57 1014.0
20260506081421 72 160 3.0 6.0 0.00 0.00 0.00 57 1014.0
20260506081135 72 193 2.0 6.0 0.00 0.00 0.00 59 1014.1
20260506080840 72 265 2.0 6.0 0.00 0.00 0.00 59 1014.0
20260506080726 72 227 2.0 6.0 0.00 0.00 0.00 59 1014.0
20260506080527 72 283 2.0 6.0 0.00 0.00 0.00 60 1014.0
20260506080431 72 274 2.0 6.0 0.00 0.00 0.00 60 1014.1
20260506080358 72 284 2.0 4.0 0.00 0.00 0.00 61 1014.1
20260506080134 71 277 2.0 4.0 0.00 0.00 0.00 61 1014.0
20260506073256 68 129 1.0 3.0 0.00 0.00 0.00 67 1014.1
20260506073125 68 301 1.0 3.0 0.00 0.00 0.00 68 1014.1
20260506072950 68 319 1.0 3.0 0.00 0.00 0.00 68 1014.1
20260506072937 68 318 1.0 3.0 0.00 0.00 0.00 69 1014.1
20260506072754 68 238 1.0 3.0 0.00 0.00 0.00 69 1014.1
20260506072610 67 279 1.0 3.0 0.00 0.00 0.00 69 1014.1
20260506072439 67 295 1.0 3.0 0.00 0.00 0.00 70 1014.1
20260506072343 67 347 1.0 3.0 0.00 0.00 0.00 70 1014.1
20260506072055 67 233 1.0 3.0 0.00 0.00 0.00 70 1014.1
20260506071744 66 233 1.0 4.0 0.00 0.00 0.00 71 1014.1
20260506071436 66 259 2.0 4.0 0.00 0.00 0.00 71 1014.1
20260506071206 66 257 2.0 4.0 0.00 0.00 0.00 71 1014.1
20260506070738 66 294 2.0 4.0 0.00 0.00 0.00 72 1014.1
20260506070504 65 294 2.0 4.0 0.00 0.00 0.00 72 1014.1
20260506070256 65 310 2.0 4.0 0.00 0.00 0.00 72 1014.2
20260506070234 65 304 2.0 4.0 0.00 0.00 0.00 72 1014.2
20260506062220 62 326 1.0 4.0 0.00 0.00 0.00 82 1014.5
20260506062017 61 302 1.0 4.0 0.00 0.00 0.00 82 1014.5
20260506061739 61 323 1.0 4.0 0.00 0.00 0.00 83 1014.5
20260506061713 61 310 1.0 4.0 0.00 0.00 0.00 83 1014.5
20260506061600 56 331 3.0 6.0 0.00 0.00 0.00 85 1013.4
20260506061537 61 306 1.0 3.0 0.00 0.00 0.00 84 1014.5
20260506061356 61 233 2.0 3.0 0.00 0.00 0.00 84 1014.5
20260506061216 60 221 1.0 3.0 0.00 0.00 0.00 84 1014.5
20260506061150 60 237 1.0 3.0 0.00 0.00 0.00 84 1014.5
20260506061003 60 268 1.0 3.0 0.00 0.00 0.00 84 1014.5
20260506060821 60 274 1.0 3.0 0.00 0.00 0.00 85 1014.5
20260506060806 60 273 1.0 3.0 0.00 0.00 0.00 85 1014.5
20260506060645 59 273 1.0 3.0 0.00 0.00 0.00 85 1014.5
20260506060514 59 305 0.0 3.0 0.00 0.00 0.00 85 1014.4
20260506060125 59 305 0.0 2.0 0.00 0.00 0.00 85 1014.4
20260506051313 55 277 2.0 3.0 0.00 0.00 0.00 88 1014.5
20260506051249 55 290 1.0 3.0 0.00 0.00 0.00 88 1014.5
20260506051138 55 284 1.0 3.0 0.00 0.00 0.00 88 1014.4
20260506051003 55 284 1.0 3.0 0.00 0.00 0.00 89 1014.4
20260506050837 55 295 1.0 3.0 0.00 0.00 0.00 89 1014.4
20260506050807 55 299 1.0 3.0 0.00 0.00 0.00 89 1014.4
20260506050637 55 327 1.0 3.0 0.00 0.00 0.00 89 1014.3
20260506050446 54 304 1.0 3.0 0.00 0.00 0.00 89 1014.4
20260506044950 53 323 2.0 3.0 0.00 0.00 0.00 89 1014.3
20260506044800 53 319 2.0 3.0 0.00 0.00 0.00 89 1014.3
20260506044713 53 323 2.0 4.0 0.00 0.00 0.00 89 1014.3
20260506044628 53 324 2.0 4.0 0.00 0.00 0.00 89 1014.2
20260506044515 53 327 2.0 4.0 0.00 0.00 0.00 89 1014.3
20260506044351 53 320 2.0 4.0 0.00 0.00 0.00 89 1014.2
20260506044342 53 298 2.0 4.0 0.00 0.00 0.00 89 1014.2
20260506044212 53 345 2.0 4.0 0.00 0.00 0.00 89 1014.2
20260506043926 53 302 2.0 4.0 0.00 0.00 0.00 89 1014.2
20260506043800 53 313 2.0 3.0 0.00 0.00 0.00 89 1014.2
20260506043720 53 326 2.0 4.0 0.00 0.00 0.00 89 1014.2
20260506043505 52 333 2.0 4.0 0.00 0.00 0.00 88 1014.1
20260506043309 52 306 2.0 6.0 0.00 0.00 0.00 88 1014.1
20260506043130 52 288 2.0 6.0 0.00 0.00 0.00 88 1014.1
20260506042826 52 311 2.0 6.0 0.00 0.00 0.00 88 1014.1
20260506042747 52 311 2.0 6.0 0.00 0.00 0.00 88 1014.1
20260506042658 52 286 2.0 6.0 0.00 0.00 0.00 88 1014.1
20260506042539 52 314 2.0 6.0 0.00 0.00 0.00 88 1014.1
20260506042339 52 317 2.0 4.0 0.00 0.00 0.00 88 1014.1
20260506042225 52 287 2.0 4.0 0.00 0.00 0.00 88 1014.1
20260506042050 52 262 2.0 4.0 0.00 0.00 0.00 88 1014.1
20260506042012 52 286 2.0 4.0 0.00 0.00 0.00 88 1014.1
20260506041858 52 299 2.0 3.0 0.00 0.00 0.00 88 1014.0
20260506041734 52 271 2.0 3.0 0.00 0.00 0.00 88 1014.0
20260506041554 52 315 2.0 3.0 0.00 0.00 0.00 88 1014.1
20260506041443 52 306 2.0 3.0 0.00 0.00 0.00 88 1013.9
20260506041305 52 314 2.0 4.0 0.00 0.00 0.00 87 1013.9
20260506041214 52 323 2.0 4.0 0.00 0.00 0.00 87 1013.9
20260506041125 52 322 2.0 4.0 0.00 0.00 0.00 87 1014.0
20260506041000 52 317 2.0 4.0 0.00 0.00 0.00 87 1013.9
20260506040838 52 323 2.0 4.0 0.00 0.00 0.00 87 1014.0
20260506040718 52 307 2.0 4.0 0.00 0.00 0.00 87 1013.9
20260506040550 52 307 2.0 4.0 0.00 0.00 0.00 88 1013.9
20260506040523 52 317 2.0 4.0 0.00 0.00 0.00 88 1013.9
20260506040433 52 277 1.0 4.0 0.00 0.00 0.00 88 1013.9
20260506040250 52 298 1.0 3.0 0.00 0.00 0.00 87 1013.9
20260506040154 52 288 1.0 3.0 0.00 0.00 0.00 87 1013.9
20260506040127 52 286 1.0 3.0 0.00 0.00 0.00 87 1013.9
20260506040002 52 277 1.0 3.0 0.00 0.00 0.00 87 1013.8
20260506035830 52 315 0.0 3.0 0.00 0.00 0.00 87 1013.8
20260506035804 52 316 0.0 3.0 0.00 0.00 0.00 87 1013.7
20260506035629 52 315 0.0 2.0 0.00 0.00 0.00 87 1013.7
20260506035454 52 300 0.0 2.0 0.00 0.00 0.00 87 1013.7
20260506035337 52 300 1.0 2.0 0.00 0.00 0.00 87 1013.6
20260506035317 52 300 1.0 2.0 0.00 0.00 0.00 87 1013.6
20260506035047 52 300 1.0 2.0 0.00 0.00 0.00 87 1013.7
20260506034901 52 292 1.0 2.0 0.00 0.00 0.00 87 1013.7
20260506034817 52 293 1.0 2.0 0.00 0.00 0.00 87 1013.7
20260506034706 52 304 1.0 3.0 0.00 0.00 0.00 87 1013.7
20260506034536 52 314 1.0 4.0 0.00 0.00 0.00 87 1013.7
20260506034150 53 314 1.0 4.0 0.00 0.00 0.00 87 1013.8
20260506034032 53 293 1.0 4.0 0.00 0.00 0.00 87 1013.7
20260506033925 53 316 1.0 4.0 0.00 0.00 0.00 87 1013.7
20260506033857 53 315 1.0 4.0 0.00 0.00 0.00 87 1013.7
20260506033745 53 281 1.0 4.0 0.00 0.00 0.00 87 1013.7
20260506033559 53 286 1.0 3.0 0.00 0.00 0.00 87 1013.7
20260506033456 53 305 1.0 2.0 0.00 0.00 0.00 87 1013.7
20260506033435 53 305 0.0 2.0 0.00 0.00 0.00 87 1013.7
20260506033300 53 305 0.0 2.0 0.00 0.00 0.00 87 1013.6
20260506033044 53 305 0.0 0.0 0.00 0.00 0.00 87 1013.6
20260506032917 53 305 0.0 0.0 0.00 0.00 0.00 87 1013.6
20260506032611 53 305 0.0 0.0 0.00 0.00 0.00 87 1013.6
20260506032458 53 305 0.0 0.0 0.00 0.00 0.00 87 1013.6
20260506032340 53 304 0.0 1.0 0.00 0.00 0.00 87 1013.6
20260506032143 53 304 0.0 2.0 0.00 0.00 0.00 87 1013.6
20260506032015 53 304 0.0 2.0 0.00 0.00 0.00 87 1013.6
20260506032004 53 304 0.0 2.0 0.00 0.00 0.00 87 1013.6
20260506031737 53 305 1.0 2.0 0.00 0.00 0.00 87 1013.6
20260506031439 53 305 1.0 2.0 0.00 0.00 0.00 87 1013.6
20260506031312 53 305 1.0 2.0 0.00 0.00 0.00 87 1013.6
20260506031140 53 304 1.0 2.0 0.00 0.00 0.00 87 1013.5
20260506030946 53 305 1.0 2.0 0.00 0.00 0.00 87 1013.5
20260506030736 53 305 1.0 3.0 0.00 0.00 0.00 87 1013.5
20260506030544 53 305 1.0 3.0 0.00 0.00 0.00 87 1013.4
20260506030316 53 307 1.0 3.0 0.00 0.00 0.00 87 1013.5
20260506030211 53 307 1.0 3.0 0.00 0.00 0.00 87 1013.5
20260506030052 53 318 1.0 3.0 0.00 0.00 0.00 87 1013.5
20260506025823 53 299 2.0 3.0 0.00 0.00 0.00 87 1013.5
20260506025608 53 277 2.0 3.0 0.00 0.00 0.00 87 1013.5
20260506025344 53 307 1.0 3.0 0.00 0.00 0.00 87 1013.4
20260506025155 53 310 1.0 3.0 0.00 0.00 0.00 87 1013.4
20260506025039 53 310 1.0 3.0 0.00 0.00 0.00 87 1013.4
20260506024913 53 310 1.0 3.0 0.00 0.00 0.00 87 1013.5
20260506024558 53 310 1.0 3.0 0.00 0.00 0.00 87 1013.5
20260506024240 53 291 1.0 2.0 0.00 0.00 0.00 87 1013.5
20260506024010 53 291 1.0 2.0 0.00 0.00 0.00 87 1013.6
20260506023723 53 291 1.0 2.0 0.00 0.00 0.00 86 1013.6
20260506023619 53 291 1.0 2.0 0.00 0.00 0.00 86 1013.6
20260506023503 53 309 1.0 2.0 0.00 0.00 0.00 86 1013.5
20260506023234 53 309 1.0 2.0 0.00 0.00 0.00 86 1013.6
20260506023052 53 309 1.0 2.0 0.00 0.00 0.00 86 1013.6
20260506022826 53 309 1.0 3.0 0.00 0.00 0.00 86 1013.6
20260506022531 54 333 1.0 4.0 0.00 0.00 0.00 86 1013.6
20260506022106 54 333 2.0 4.0 0.00 0.00 0.00 86 1013.7
20260506021836 54 334 2.0 4.0 0.00 0.00 0.00 86 1013.6
20260506021637 54 331 2.0 4.0 0.00 0.00 0.00 86 1013.6
20260506021604 54 319 2.0 4.0 0.00 0.00 0.00 86 1013.7
20260506021349 54 302 2.0 4.0 0.00 0.00 0.00 86 1013.6
20260506021206 54 313 2.0 4.0 0.00 0.00 0.00 86 1013.7
20260506021126 54 325 2.0 4.0 0.00 0.00 0.00 86 1013.7
20260506020915 54 327 2.0 4.0 0.00 0.00 0.00 86 1013.7
20260506020713 54 292 3.0 4.0 0.00 0.00 0.00 86 1013.6
20260506020612 54 294 3.0 4.0 0.00 0.00 0.00 86 1013.6
20260506020514 54 317 3.0 4.0 0.00 0.00 0.00 86 1013.6
20260506020323 54 301 3.0 4.0 0.00 0.00 0.00 86 1013.6
20260506020123 54 302 3.0 4.0 0.00 0.00 0.00 86 1013.7
20260506020053 54 325 3.0 4.0 0.00 0.00 0.00 85 1013.7
20260506015843 54 313 3.0 4.0 0.00 0.00 0.00 85 1013.6
20260506015651 54 296 3.0 4.0 0.00 0.00 0.00 85 1013.6
20260506015546 54 323 3.0 4.0 0.00 0.00 0.00 85 1013.6
20260506015454 55 305 3.0 4.0 0.00 0.00 0.00 85 1013.6
20260506015327 55 302 3.0 4.0 0.00 0.00 0.00 85 1013.6
20260506015119 55 290 2.0 4.0 0.00 0.00 0.00 85 1013.6
20260506015111 55 306 2.0 4.0 0.00 0.00 0.00 85 1013.6
20260506014902 55 288 2.0 4.0 0.00 0.00 0.00 85 1013.5
20260506014715 55 305 2.0 4.0 0.00 0.00 0.00 85 1013.5
20260506014555 55 322 2.0 4.0 0.00 0.00 0.00 85 1013.5
20260506014510 55 299 2.0 4.0 0.00 0.00 0.00 85 1013.5
20260506014340 55 313 2.0 4.0 0.00 0.00 0.00 85 1013.4
20260506014201 55 311 3.0 4.0 0.00 0.00 0.00 85 1013.4
20260506014003 55 293 2.0 4.0 0.00 0.00 0.00 85 1013.5
20260506013823 55 308 2.0 4.0 0.00 0.00 0.00 85 1013.4
20260506013422 55 321 3.0 4.0 0.00 0.00 0.00 85 1013.4
20260506013214 55 306 3.0 4.0 0.00 0.00 0.00 85 1013.5
20260506013039 55 307 3.0 4.0 0.00 0.00 0.00 85 1013.4
20260506013027 55 311 3.0 4.0 0.00 0.00 0.00 85 1013.4
20260506012801 55 317 3.0 4.0 0.00 0.00 0.00 85 1013.4
20260506012623 55 304 3.0 4.0 0.00 0.00 0.00 85 1013.4
20260506012515 55 296 3.0 4.0 0.00 0.00 0.00 85 1013.4
20260506012401 55 346 2.0 4.0 0.00 0.00 0.00 85 1013.4
20260506012202 55 313 2.0 5.0 0.00 0.00 0.00 85 1013.4
20260506012021 55 306 2.0 5.0 0.00 0.00 0.00 85 1013.5
20260506011959 55 300 2.0 5.0 0.00 0.00 0.00 85 1013.5
20260506011756 56 317 2.0 5.0 0.00 0.00 0.00 85 1013.5
20260506011750 63 313 2.0 4.0 0.00 0.00 0.00 69 1013.4
20260506011617 56 293 3.0 5.0 0.00 0.00 0.00 85 1013.4
20260506011540 56 304 3.0 5.0 0.00 0.00 0.00 85 1013.4
20260506011419 56 320 3.0 5.0 0.00 0.00 0.00 85 1013.5
20260506011342 63 355 2.0 4.0 0.00 0.00 0.00 69 1013.4
20260506011310 64 355 2.0 4.0 0.00 0.00 0.00 68 1013.2
20260506011201 56 325 3.0 4.0 0.00 0.00 0.00 85 1013.5
20260506011041 56 309 3.0 4.0 0.00 0.00 0.00 85 1013.5
20260506010957 56 293 3.0 4.0 0.00 0.00 0.00 85 1013.5
20260506010758 56 310 3.0 4.0 0.00 0.00 0.00 85 1013.4
20260506010623 56 333 3.0 4.0 0.00 0.00 0.00 85 1013.4
20260506010548 56 322 3.0 4.0 0.00 0.00 0.00 85 1013.4
20260506010349 56 296 3.0 4.0 0.00 0.00 0.00 85 1013.5
20260506010256 64 326 3.0 8.0 0.00 0.00 0.00 70 1013.2
20260506010153 56 286 3.0 4.0 0.00 0.00 0.00 85 1013.4
20260506010013 56 306 3.0 4.0 0.00 0.00 0.00 85 1013.4
20260506005946 56 309 3.0 4.0 0.00 0.00 0.00 85 1013.4
20260506005751 56 323 2.0 4.0 0.00 0.00 0.00 85 1013.4
20260506005704 64 20 3.0 8.0 0.00 0.00 0.00 70 1013.1
20260506005550 56 310 2.0 4.0 0.00 0.00 0.00 85 1013.3
20260506005516 56 300 2.0 4.0 0.00 0.00 0.00 85 1013.3
20260506005333 56 309 2.0 4.0 0.00 0.00 0.00 85 1013.3
20260506005211 56 322 2.0 4.0 0.00 0.00 0.00 85 1013.3
20260506005042 56 318 2.0 4.0 0.00 0.00 0.00 85 1013.4
20260506005016 56 320 3.0 4.0 0.00 0.00 0.00 85 1013.4
20260506004745 56 299 3.0 5.0 0.00 0.00 0.00 85 1013.3
20260506004625 56 322 3.0 5.0 0.00 0.00 0.00 85 1013.4
20260506004600 56 313 3.0 5.0 0.00 0.00 0.00 85 1013.4
20260506004438 56 318 3.0 7.0 0.00 0.00 0.00 85 1013.4
20260506004320 56 321 4.0 7.0 0.00 0.00 0.00 85 1013.4
20260506004159 56 308 4.0 7.0 0.00 0.00 0.00 85 1013.4
20260506004135 56 325 4.0 7.0 0.00 0.00 0.00 85 1013.4
20260506003733 56 321 4.0 7.0 0.00 0.00 0.00 85 1013.4
20260506003550 56 321 4.0 7.0 0.00 0.00 0.00 85 1013.4
20260506003520 56 344 4.0 7.0 0.00 0.00 0.00 85 1013.4
20260506003403 56 344 4.0 6.0 0.00 0.00 0.00 85 1013.4
20260506003229 56 322 3.0 6.0 0.00 0.00 0.00 85 1013.4
20260506003126 56 317 3.0 6.0 0.00 0.00 0.00 85 1013.4
20260506003032 56 340 3.0 6.0 0.00 0.00 0.00 85 1013.4
20260506002913 56 303 3.0 6.0 0.00 0.00 0.00 85 1013.4
20260506002757 56 18 3.0 6.0 0.00 0.00 0.00 85 1013.4
20260506002333 56 346 3.0 6.0 0.00 0.00 0.00 84 1013.5
20260506002200 66 95 2.0 8.0 0.00 0.00 0.00 65 1012.4
20260506002124 56 331 3.0 6.0 0.00 0.00 0.00 84 1013.4
20260506002012 56 318 3.0 6.0 0.00 0.00 0.00 84 1013.4
20260506001929 56 289 3.0 6.0 0.00 0.00 0.00 84 1013.4
20260506001743 67 93 2.0 4.0 0.00 0.00 0.00 64 1012.2
20260506001719 56 337 4.0 6.0 0.00 0.00 0.00 84 1013.5
20260506001539 56 317 4.0 7.0 0.00 0.00 0.00 83 1013.4
20260506001518 56 341 4.0 7.0 0.00 0.00 0.00 83 1013.4
20260506001345 57 307 4.0 7.0 0.00 0.00 0.00 83 1013.4
20260506001154 57 304 4.0 7.0 0.00 0.00 0.00 83 1013.4
20260506001040 57 331 4.0 8.0 0.00 0.00 0.00 83 1013.4
20260506000928 57 319 4.0 8.0 0.00 0.00 0.00 82 1013.4
20260506000746 57 340 4.0 8.0 0.00 0.00 0.00 82 1013.4
20260506000625 57 309 5.0 8.0 0.00 0.00 0.00 82 1013.4
20260506000610 57 296 5.0 8.0 0.00 0.00 0.00 82 1013.4
20260506000431 57 315 5.0 8.0 0.00 0.00 0.00 81 1013.4
20260506000240 58 327 5.0 8.0 0.00 0.00 0.00 81 1013.4
20260506000040 58 301 5.0 8.0 0.00 0.00 0.00 80 1013.4
20260505235959 58 340 5.0 8.0 0.00 0.00 0.00 80 1013.4
20260505235749 58 323 5.0 8.0 0.00 0.00 0.00 80 1013.4
20260505235613 58 280 4.0 8.0 0.00 0.00 0.00 79 1013.3
20260505235555 58 290 4.0 8.0 0.00 0.00 0.00 79 1013.3
20260505235408 58 284 4.0 8.0 0.00 0.00 0.00 79 1013.3
20260505235147 59 327 4.0 8.0 0.00 0.00 0.00 78 1013.4
20260505235031 59 304 4.0 8.0 0.00 0.00 0.00 78 1013.3
20260505234937 59 337 4.0 8.0 0.00 0.00 0.00 78 1013.3
20260505234752 59 287 4.0 7.0 0.00 0.00 0.00 77 1013.3
20260505234558 59 313 4.0 8.0 0.00 0.00 0.00 76 1013.3
20260505234527 60 309 4.0 8.0 0.00 0.00 0.00 76 1013.4
20260505234252 60 254 4.0 8.0 0.00 0.00 0.00 76 1013.4
20260505234112 60 308 4.0 8.0 0.00 0.00 0.00 75 1013.3
20260505234034 60 277 4.0 8.0 0.00 0.00 0.00 75 1013.3
20260505233854 60 292 4.0 8.0 0.00 0.00 0.00 75 1013.3
20260505233700 60 274 3.0 8.0 0.00 0.00 0.00 74 1013.3
20260505233525 60 274 3.0 8.0 0.00 0.00 0.00 74 1013.3
20260505233506 60 273 3.0 8.0 0.00 0.00 0.00 74 1013.3
20260505233329 61 0 3.0 7.0 0.00 0.00 0.00 73 1013.2
20260505233154 61 278 3.0 6.0 0.00 0.00 0.00 73 1013.2
20260505233119 61 294 3.0 6.0 0.00 0.00 0.00 72 1013.3
20260505232859 61 306 3.0 9.0 0.00 0.00 0.00 72 1013.3
20260505232720 61 271 3.0 9.0 0.00 0.00 0.00 72 1013.3
20260505232610 61 279 3.0 9.0 0.00 0.00 0.00 72 1013.3
20260505232542 61 286 3.0 9.0 0.00 0.00 0.00 72 1013.3
20260505232324 61 292 3.0 9.0 0.00 0.00 0.00 72 1013.3
20260505232150 61 265 3.0 9.0 0.00 0.00 0.00 71 1013.3
20260505232117 61 269 3.0 9.0 0.00 0.00 0.00 71 1013.3
20260505231907 61 305 2.0 5.0 0.00 0.00 0.00 71 1013.3
20260505231732 61 333 2.0 5.0 0.00 0.00 0.00 71 1013.2
20260505231609 61 314 2.0 5.0 0.00 0.00 0.00 71 1013.2
20260505231508 61 9 2.0 5.0 0.00 0.00 0.00 71 1013.3
20260505231319 61 266 3.0 5.0 0.00 0.00 0.00 71 1013.2
20260505231132 61 25 3.0 5.0 0.00 0.00 0.00 71 1013.2
20260505231101 61 9 3.0 5.0 0.00 0.00 0.00 71 1013.2
20260505230922 61 271 3.0 5.0 0.00 0.00 0.00 70 1013.2
20260505230648 62 322 3.0 5.0 0.00 0.00 0.00 70 1013.2
20260505230557 62 311 3.0 5.0 0.00 0.00 0.00 70 1013.2
20260505230516 62 306 3.0 5.0 0.00 0.00 0.00 70 1013.3
20260505230337 62 343 3.0 5.0 0.00 0.00 0.00 70 1013.2
20260505230105 62 308 3.0 5.0 0.00 0.00 0.00 70 1013.2
20260505230041 62 290 3.0 5.0 0.00 0.00 0.00 70 1013.2
20260505225900 62 303 3.0 5.0 0.00 0.00 0.00 69 1013.2
20260505225619 62 310 3.0 5.0 0.00 0.00 0.00 69 1013.2
20260505225458 62 307 3.0 4.0 0.00 0.00 0.00 69 1013.2
20260505225415 62 315 3.0 4.0 0.00 0.00 0.00 69 1013.2
20260505225216 62 306 3.0 4.0 0.00 0.00 0.00 69 1013.2
20260505225028 63 311 3.0 4.0 0.00 0.00 0.00 69 1013.2
20260505225007 63 327 3.0 4.0 0.00 0.00 0.00 69 1013.2
20260505224843 63 303 2.0 4.0 0.00 0.00 0.00 69 1013.2
20260505224721 63 319 2.0 4.0 0.00 0.00 0.00 69 1013.3
20260505224610 63 307 2.0 4.0 0.00 0.00 0.00 69 1013.3
20260505224510 63 307 2.0 4.0 0.00 0.00 0.00 69 1013.3
20260505224330 63 288 2.0 4.0 0.00 0.00 0.00 69 1013.3
20260505224220 63 318 2.0 4.0 0.00 0.00 0.00 69 1013.4
20260505224203 63 0 2.0 4.0 0.00 0.00 0.00 69 1013.4
20260505224022 63 311 2.0 4.0 0.00 0.00 0.00 69 1013.4
20260505223842 63 23 2.0 4.0 0.00 0.00 0.00 69 1013.3
20260505223502 63 325 2.0 4.0 0.00 0.00 0.00 69 1013.4
20260505223335 63 355 2.0 4.0 0.00 0.00 0.00 69 1013.3
20260505223217 63 331 2.0 4.0 0.00 0.00 0.00 69 1013.4
20260505222805 63 355 2.0 4.0 0.00 0.00 0.00 69 1013.3
20260505222733 72 188 0.0 1.0 0.00 0.00 0.00 55 1011.4
20260505222622 63 337 2.0 4.0 0.00 0.00 0.00 69 1013.4
20260505222526 63 302 2.0 4.0 0.00 0.00 0.00 69 1013.3
20260505222421 63 312 2.0 4.0 0.00 0.00 0.00 69 1013.3
20260505222220 63 307 2.0 6.0 0.00 0.00 0.00 68 1013.3
20260505222039 63 290 2.0 6.0 0.00 0.00 0.00 68 1013.3
20260505221959 63 309 2.0 6.0 0.00 0.00 0.00 68 1013.3
20260505221802 64 287 2.0 6.0 0.00 0.00 0.00 68 1013.3
20260505221610 64 314 2.0 6.0 0.00 0.00 0.00 68 1013.3
20260505221507 64 286 2.0 6.0 0.00 0.00 0.00 68 1013.3
20260505221421 64 298 2.0 6.0 0.00 0.00 0.00 68 1013.3
20260505221303 75 142 3.0 7.0 0.00 0.00 0.00 53 1011.1
20260505221159 64 289 2.0 4.0 0.00 0.00 0.00 68 1013.2
20260505221033 64 314 2.0 4.0 0.00 0.00 0.00 68 1013.2
20260505221019 64 321 2.0 4.0 0.00 0.00 0.00 68 1013.2
20260505220905 64 309 2.0 4.0 0.00 0.00 0.00 68 1013.2
20260505220745 64 310 2.0 4.0 0.00 0.00 0.00 68 1013.2
20260505220401 64 317 2.0 4.0 0.00 0.00 0.00 68 1013.2
20260505220312 80 217 5.0 12.0 0.00 0.00 0.00 40 1011.0
20260505220150 64 355 2.0 4.0 0.00 0.00 0.00 69 1013.2
20260505220140 81 157 5.0 13.0 0.00 0.00 0.00 41 1011.1
20260505220121 82 174 5.0 10.0 0.00 0.00 0.00 42 1011.1
20260505215958 64 327 2.0 6.0 0.00 0.00 0.00 69 1013.2
20260505215952 64 326 2.0 6.0 0.00 0.00 0.00 69 1013.2
20260505215750 64 316 3.0 6.0 0.00 0.00 0.00 69 1013.2
20260505215717 83 211 4.0 10.0 0.00 0.00 0.00 40 1011.2
20260505215628 83 178 5.0 17.0 0.00 0.00 0.00 40 1011.6
20260505215541 64 319 3.0 6.0 0.00 0.00 0.00 69 1013.2
20260505215455 64 344 3.0 6.0 0.00 0.00 0.00 69 1013.2
20260505215401 64 355 3.0 6.0 0.00 0.00 0.00 69 1013.1
20260505215152 64 350 3.0 6.0 0.00 0.00 0.00 69 1013.1
20260505214956 64 328 2.0 6.0 0.00 0.00 0.00 69 1013.1
20260505214946 64 327 2.0 6.0 0.00 0.00 0.00 69 1013.1
20260505214753 64 302 2.0 6.0 0.00 0.00 0.00 69 1013.1
20260505214656 85 142 3.0 10.0 0.00 0.00 0.00 39 1011.4
20260505214554 64 5 2.0 5.0 0.00 0.00 0.00 69 1013.1
20260505214448 64 355 2.0 5.0 0.00 0.00 0.00 69 1013.2
20260505214341 64 5 2.0 5.0 0.00 0.00 0.00 69 1013.2
20260505214146 64 0 2.0 5.0 0.00 0.00 0.00 70 1013.1
20260505214016 64 333 2.0 5.0 0.00 0.00 0.00 70 1013.2
20260505214004 64 326 2.0 5.0 0.00 0.00 0.00 70 1013.2
20260505213820 64 11 2.0 5.0 0.00 0.00 0.00 70 1013.1
20260505213702 64 5 2.0 4.0 0.00 0.00 0.00 70 1013.2
20260505213626 64 0 2.0 5.0 0.00 0.00 0.00 70 1013.2
20260505213543 64 0 2.0 5.0 0.00 0.00 0.00 70 1013.1
20260505213404 64 34 2.0 5.0 0.00 0.00 0.00 70 1013.1
20260505213017 64 336 3.0 8.0 0.00 0.00 0.00 70 1013.2
20260505212819 64 321 3.0 8.0 0.00 0.00 0.00 70 1013.1
20260505212641 64 299 3.0 11.0 0.00 0.00 0.00 70 1013.1
20260505212603 64 0 3.0 11.0 0.00 0.00 0.00 70 1013.1
20260505212510 64 0 3.0 11.0 0.00 0.00 0.00 70 1013.1
20260505212322 64 337 3.0 11.0 0.00 0.00 0.00 70 1013.1
20260505212127 64 0 3.0 11.0 0.00 0.00 0.00 70 1013.2
20260505212113 64 11 3.0 11.0 0.00 0.00 0.00 70 1013.2
20260505211926 64 336 3.0 11.0 0.00 0.00 0.00 70 1013.1
20260505211758 64 0 2.0 8.0 0.00 0.00 0.00 70 1013.1
20260505211417 64 53 3.0 8.0 0.00 0.00 0.00 70 1013.1
20260505211149 64 39 3.0 6.0 0.00 0.00 0.00 70 1013.1
20260505211005 64 348 3.0 7.0 0.00 0.00 0.00 70 1013.1
20260505210954 64 12 3.0 7.0 0.00 0.00 0.00 70 1013.1
20260505210744 64 342 3.0 7.0 0.00 0.00 0.00 70 1013.1
20260505210525 64 330 4.0 7.0 0.00 0.00 0.00 70 1013.1
20260505210453 64 339 4.0 7.0 0.00 0.00 0.00 70 1013.2
20260505210353 64 355 4.0 7.0 0.00 0.00 0.00 70 1013.2
20260505210157 64 292 4.0 7.0 0.00 0.00 0.00 70 1013.1
20260505210026 64 315 4.0 7.0 0.00 0.00 0.00 70 1013.1
20260505210000 64 319 4.0 6.0 0.00 0.00 0.00 70 1013.1
20260505205742 64 346 3.0 6.0 0.00 0.00 0.00 70 1013.1
20260505205533 64 315 3.0 6.0 0.00 0.00 0.00 70 1013.2
20260505205508 64 310 3.0 8.0 0.00 0.00 0.00 69 1013.2
20260505205318 64 331 3.0 8.0 0.00 0.00 0.00 69 1013.1
20260505205300 85 227 3.0 12.0 0.00 0.00 0.00 33 1011.4
20260505205114 64 337 2.0 8.0 0.00 0.00 0.00 69 1013.1
20260505204940 64 307 2.0 8.0 0.00 0.00 0.00 69 1013.1
20260505204913 64 326 2.0 8.0 0.00 0.00 0.00 69 1013.1
20260505204718 64 303 3.0 8.0 0.00 0.00 0.00 69 1013.1
20260505204532 64 350 3.0 8.0 0.00 0.00 0.00 69 1013.1
20260505204442 64 329 2.0 5.0 0.00 0.00 0.00 69 1013.1
20260505204326 64 325 2.0 5.0 0.00 0.00 0.00 69 1013.1
20260505204117 64 349 3.0 6.0 0.00 0.00 0.00 70 1013.1
20260505203941 64 344 3.0 8.0 0.00 0.00 0.00 70 1013.0
20260505203921 64 326 3.0 8.0 0.00 0.00 0.00 70 1013.0
20260505203712 64 298 3.0 8.0 0.00 0.00 0.00 70 1013.1
20260505203659 85 221 4.0 9.0 0.00 0.00 0.00 32 1011.4
20260505203516 65 272 3.0 8.0 0.00 0.00 0.00 71 1013.1
20260505203449 65 277 3.0 8.0 0.00 0.00 0.00 71 1013.1
20260505203316 65 273 3.0 8.0 0.00 0.00 0.00 71 1013.1
20260505203115 65 340 2.0 6.0 0.00 0.00 0.00 71 1012.9
20260505202941 65 17 2.0 6.0 0.00 0.00 0.00 71 1012.9
20260505202839 65 29 2.0 6.0 0.00 0.00 0.00 71 1012.9
20260505202642 65 30 2.0 8.0 0.00 0.00 0.00 71 1012.9
20260505202500 65 19 2.0 8.0 0.00 0.00 0.00 71 1012.9
20260505202453 65 42 2.0 8.0 0.00 0.00 0.00 71 1012.9
20260505202250 65 49 2.0 8.0 0.00 0.00 0.00 71 1012.9
20260505202043 65 88 3.0 8.0 0.00 0.00 0.00 71 1012.8
20260505201934 65 5 3.0 8.0 0.00 0.00 0.00 71 1012.8
20260505201925 84 321 5.0 12.0 0.00 0.00 0.00 32 1011.5
20260505201842 65 10 3.0 8.0 0.00 0.00 0.00 71 1012.8
20260505201634 65 33 3.0 7.0 0.00 0.00 0.00 70 1012.8
20260505201450 65 116 3.0 7.0 0.00 0.00 0.00 70 1012.7
20260505201441 65 130 3.0 7.0 0.00 0.00 0.00 70 1012.7
20260505201248 65 88 3.0 7.0 0.00 0.00 0.00 70 1012.7
20260505201102 65 71 3.0 8.0 0.00 0.00 0.00 70 1012.6
20260505201001 65 57 2.0 8.0 0.00 0.00 0.00 70 1012.6
20260505200922 65 80 2.0 8.0 0.00 0.00 0.00 69 1012.6
20260505200704 65 101 3.0 8.0 0.00 0.00 0.00 69 1012.6
20260505200510 66 107 2.0 8.0 0.00 0.00 0.00 69 1012.6
20260505200503 66 90 2.0 8.0 0.00 0.00 0.00 69 1012.6
20260505200339 66 52 2.0 8.0 0.00 0.00 0.00 68 1012.6
20260505200149 66 105 2.0 6.0 0.00 0.00 0.00 68 1012.6
20260505200058 66 90 2.0 6.0 0.00 0.00 0.00 68 1012.5
20260505200018 66 111 2.0 6.0 0.00 0.00 0.00 68 1012.5
20260505195837 66 96 2.0 6.0 0.00 0.00 0.00 67 1012.5
20260505195507 66 78 2.0 6.0 0.00 0.00 0.00 67 1012.5
20260505195329 66 67 2.0 6.0 0.00 0.00 0.00 67 1012.5
20260505195220 66 102 2.0 6.0 0.00 0.00 0.00 66 1012.5
20260505195137 66 60 2.0 8.0 0.00 0.00 0.00 66 1012.5
20260505195032 66 38 2.0 8.0 0.00 0.00 0.00 66 1012.4
20260505194848 66 38 2.0 8.0 0.00 0.00 0.00 65 1012.4
20260505194509 66 79 2.0 8.0 0.00 0.00 0.00 65 1012.4
20260505194320 67 40 2.0 8.0 0.00 0.00 0.00 65 1012.3
20260505194139 67 83 2.0 8.0 0.00 0.00 0.00 64 1012.3
20260505194022 67 69 2.0 5.0 0.00 0.00 0.00 64 1012.3
20260505193925 67 38 2.0 5.0 0.00 0.00 0.00 64 1012.3
20260505193740 67 55 2.0 4.0 0.00 0.00 0.00 64 1012.3
20260505193411 67 93 2.0 4.0 0.00 0.00 0.00 64 1012.2
20260505193239 67 81 1.0 4.0 0.00 0.00 0.00 64 1012.2
20260505193042 67 67 1.0 4.0 0.00 0.00 0.00 64 1012.2
20260505193005 67 88 1.0 3.0 0.00 0.00 0.00 63 1012.2
20260505192858 67 62 1.0 3.0 0.00 0.00 0.00 63 1012.2
20260505192706 67 59 1.0 3.0 0.00 0.00 0.00 63 1012.2
20260505192601 67 83 1.0 3.0 0.00 0.00 0.00 63 1012.2
20260505192535 67 58 1.0 3.0 0.00 0.00 0.00 63 1012.2
20260505192355 67 57 1.0 3.0 0.00 0.00 0.00 63 1012.1
20260505191946 67 86 1.0 3.0 0.00 0.00 0.00 63 1012.1
20260505191917 67 87 1.0 3.0 0.00 0.00 0.00 63 1012.1
20260505191748 67 46 1.0 4.0 0.00 0.00 0.00 63 1012.1
20260505191547 67 121 1.0 4.0 0.00 0.00 0.00 62 1012.1
20260505191411 68 121 1.0 5.0 0.00 0.00 0.00 62 1012.1
20260505191349 68 121 1.0 5.0 0.00 0.00 0.00 62 1012.1
20260505191241 85 309 5.0 11.0 0.00 0.00 0.00 33 1011.8
20260505191147 68 84 1.0 5.0 0.00 0.00 0.00 62 1012.1
20260505191000 68 65 1.0 5.0 0.00 0.00 0.00 62 1012.1
20260505190911 68 84 1.0 5.0 0.00 0.00 0.00 62 1012.1
20260505190832 85 294 3.0 9.0 0.00 0.00 0.00 33 1011.8
20260505190734 68 71 1.0 5.0 0.00 0.00 0.00 61 1012.0
20260505190539 84 214 3.0 8.0 0.00 0.00 0.00 34 1011.8
20260505190524 68 30 1.0 4.0 0.00 0.00 0.00 61 1012.0
20260505190439 84 280 4.0 10.0 0.00 0.00 0.00 35 1012.1
20260505190405 68 57 1.0 5.0 0.00 0.00 0.00 61 1012.0
20260505190314 68 57 1.0 5.0 0.00 0.00 0.00 60 1011.9
20260505190132 69 45 2.0 5.0 0.00 0.00 0.00 60 1011.9
20260505185916 69 67 2.0 5.0 0.00 0.00 0.00 60 1011.8
20260505185906 69 91 2.0 5.0 0.00 0.00 0.00 60 1011.8
20260505185716 69 108 2.0 5.0 0.00 0.00 0.00 59 1011.8
20260505185512 69 73 2.0 5.0 0.00 0.00 0.00 58 1011.9
20260505185408 69 72 2.0 4.0 0.00 0.00 0.00 58 1011.8
20260505185310 69 59 2.0 4.0 0.00 0.00 0.00 58 1011.8
20260505185105 70 109 1.0 4.0 0.00 0.00 0.00 58 1011.8
20260505184922 70 59 1.0 4.0 0.00 0.00 0.00 57 1011.7
20260505184912 70 59 1.0 4.0 0.00 0.00 0.00 57 1011.7
20260505184712 70 75 1.0 5.0 0.00 0.00 0.00 57 1011.8
20260505184503 70 81 1.0 5.0 0.00 0.00 0.00 56 1011.7
20260505184351 70 37 1.0 5.0 0.00 0.00 0.00 56 1011.7
20260505184258 71 50 1.0 5.0 0.00 0.00 0.00 56 1011.7
20260505184108 71 65 1.0 5.0 0.00 0.00 0.00 56 1011.8
20260505183915 71 63 1.0 5.0 0.00 0.00 0.00 57 1011.8
20260505183905 71 68 0.0 5.0 0.00 0.00 0.00 57 1011.8
20260505183729 71 53 0.0 2.0 0.00 0.00 0.00 57 1011.7
20260505183556 71 187 0.0 1.0 0.00 0.00 0.00 56 1011.7
20260505183456 71 188 0.0 0.0 0.00 0.00 0.00 56 1011.6
20260505183352 71 188 0.0 1.0 0.00 0.00 0.00 56 1011.6
20260505183146 71 187 0.0 1.0 0.00 0.00 0.00 56 1011.6
20260505183021 71 187 0.0 1.0 0.00 0.00 0.00 55 1011.6
20260505182839 71 188 0.0 1.0 0.00 0.00 0.00 55 1011.6
20260505182623 71 188 0.0 1.0 0.00 0.00 0.00 55 1011.6
20260505182511 71 188 0.0 1.0 0.00 0.00 0.00 55 1011.6
20260505182344 71 188 0.0 1.0 0.00 0.00 0.00 55 1011.6
20260505182150 72 187 0.0 2.0 0.00 0.00 0.00 55 1011.6
20260505181914 72 187 0.0 2.0 0.00 0.00 0.00 55 1011.6
20260505181721 72 188 0.0 2.0 0.00 0.00 0.00 55 1011.5
20260505181533 72 187 0.0 2.0 0.00 0.00 0.00 55 1011.5
20260505181506 72 188 0.0 2.0 0.00 0.00 0.00 55 1011.5
20260505181353 72 188 0.0 2.0 0.00 0.00 0.00 55 1011.5
20260505181227 72 188 0.0 1.0 0.00 0.00 0.00 55 1011.4
20260505180823 72 188 0.0 1.0 0.00 0.00 0.00 55 1011.4
20260505180632 72 188 0.0 1.0 0.00 0.00 0.00 55 1011.4
20260505180419 72 188 0.0 1.0 0.00 0.00 0.00 55 1011.4
20260505180336 72 188 0.0 1.0 0.00 0.00 0.00 54 1011.4
20260505180217 72 187 0.0 1.0 0.00 0.00 0.00 54 1011.4
20260505180020 72 188 0.0 2.0 0.00 0.00 0.00 54 1011.4
20260505175905 72 187 0.0 2.0 0.00 0.00 0.00 54 1011.4
20260505175822 72 187 0.0 2.0 0.00 0.00 0.00 54 1011.4
20260505175613 72 188 1.0 2.0 0.00 0.00 0.00 54 1011.4
20260505175433 72 187 1.0 2.0 0.00 0.00 0.00 54 1011.4
20260505175340 72 188 1.0 2.0 0.00 0.00 0.00 54 1011.4
20260505175241 73 188 1.0 2.0 0.00 0.00 0.00 54 1011.5
20260505175044 73 164 1.0 2.0 0.00 0.00 0.00 54 1011.4
20260505174936 73 190 1.0 2.0 0.00 0.00 0.00 54 1011.5
20260505174911 73 190 1.0 3.0 0.00 0.00 0.00 54 1011.5
20260505174730 73 188 1.0 4.0 0.00 0.00 0.00 54 1011.4
20260505174548 73 103 1.0 4.0 0.00 0.00 0.00 54 1011.4
20260505174516 73 173 1.0 5.0 0.00 0.00 0.00 54 1011.4
20260505174147 73 182 1.0 5.0 0.00 0.00 0.00 54 1011.3
20260505174056 81 253 5.0 15.0 0.00 0.00 0.00 39 1013.0
20260505173947 73 174 2.0 6.0 0.00 0.00 0.00 54 1011.3
20260505173941 81 292 6.0 12.0 0.00 0.00 0.00 40 1013.2
20260505173856 80 265 5.0 10.0 0.00 0.00 0.00 44 1013.8
20260505173810 73 93 2.0 6.0 0.00 0.00 0.00 54 1011.3
20260505173746 73 130 2.0 6.0 0.00 0.00 0.00 54 1011.3
20260505173713 79 267 5.0 11.0 0.00 0.00 0.00 46 1013.7
20260505173544 73 160 2.0 6.0 0.00 0.00 0.00 54 1011.2
20260505173409 76 329 6.0 11.0 0.00 0.00 0.00 49 1014.0
20260505173347 73 157 1.0 6.0 0.00 0.00 0.00 54 1011.2
20260505173307 73 157 1.0 6.0 0.00 0.00 0.00 54 1011.2
20260505173225 74 311 5.0 11.0 0.00 0.00 0.00 50 1014.2
20260505173137 74 165 1.0 6.0 0.00 0.00 0.00 54 1011.2
20260505172934 74 142 1.0 3.0 0.00 0.00 0.00 55 1011.2
20260505172809 74 167 1.0 3.0 0.00 0.00 0.00 55 1011.2
20260505172744 74 167 1.0 3.0 0.00 0.00 0.00 55 1011.2
20260505172606 74 145 1.0 3.0 0.00 0.00 0.00 55 1011.1
20260505172447 74 145 1.0 3.0 0.00 0.00 0.00 55 1011.1
20260505172427 74 144 1.0 3.0 0.00 0.00 0.00 55 1011.1
20260505172312 74 144 1.0 3.0 0.00 0.00 0.00 54 1011.0
20260505171909 74 164 1.0 4.0 0.00 0.00 0.00 54 1011.0
20260505171833 66 282 4.0 10.0 0.00 0.00 0.00 58 1014.9
20260505171804 74 150 1.0 5.0 0.00 0.00 0.00 54 1011.0
20260505171708 74 121 2.0 5.0 0.00 0.00 0.00 54 1011.0
20260505171518 74 167 2.0 5.0 0.00 0.00 0.00 54 1011.0
20260505171349 74 167 2.0 5.0 0.00 0.00 0.00 54 1011.0
20260505171340 74 167 2.0 5.0 0.00 0.00 0.00 54 1011.0
20260505171216 74 166 2.0 5.0 0.00 0.00 0.00 54 1011.0
20260505171052 75 203 3.0 7.0 0.00 0.00 0.00 54 1011.1
20260505170701 75 180 3.0 7.0 0.00 0.00 0.00 53 1011.0
20260505170456 75 161 3.0 7.0 0.00 0.00 0.00 53 1011.1
20260505170433 64 309 4.0 10.0 0.00 0.00 0.00 63 1014.9
20260505170305 75 180 3.0 7.0 0.00 0.00 0.00 53 1011.1
20260505170256 75 133 3.0 7.0 0.00 0.00 0.00 53 1011.1
20260505170150 62 280 4.0 8.0 0.00 0.00 0.00 66 1014.9
20260505170057 75 141 3.0 7.0 0.00 0.00 0.00 53 1011.1
20260505165931 56 302 2.0 4.0 0.00 0.00 0.00 78 1014.8
20260505165852 75 107 3.0 6.0 0.00 0.00 0.00 53 1011.1
20260505165753 75 107 3.0 6.0 0.00 0.00 0.00 53 1011.1
20260505165701 76 153 3.0 9.0 0.00 0.00 0.00 53 1011.1
20260505165527 76 140 3.0 9.0 0.00 0.00 0.00 53 1011.1
20260505165408 76 127 4.0 9.0 0.00 0.00 0.00 52 1011.1
20260505165400 76 123 4.0 9.0 0.00 0.00 0.00 52 1011.1
20260505165233 76 184 4.0 9.0 0.00 0.00 0.00 52 1011.1
20260505164846 76 121 4.0 9.0 0.00 0.00 0.00 52 1011.2
20260505164751 76 111 3.0 9.0 0.00 0.00 0.00 52 1011.2
20260505164649 77 127 3.0 8.0 0.00 0.00 0.00 52 1011.1
20260505164501 77 144 3.0 8.0 0.00 0.00 0.00 52 1011.1
20260505164336 77 159 3.0 8.0 0.00 0.00 0.00 51 1011.1
20260505164219 77 134 3.0 7.0 0.00 0.00 0.00 51 1011.2
20260505164059 77 147 3.0 8.0 0.00 0.00 0.00 51 1011.0
20260505163809 49 289 1.0 3.0 0.00 0.00 0.00 86 1014.9
20260505163741 77 175 3.0 8.0 0.00 0.00 0.00 50 1011.1
20260505163639 78 142 3.0 8.0 0.00 0.00 0.00 50 1011.1
20260505163518 47 326 4.0 9.0 0.00 0.00 0.00 85 1014.8
20260505163416 47 314 3.0 5.0 0.00 0.00 0.00 85 1014.8
20260505163253 78 104 3.0 8.0 0.00 0.00 0.00 49 1011.1
20260505163239 78 88 3.0 8.0 0.00 0.00 0.00 49 1011.1
20260505163043 78 134 4.0 8.0 0.00 0.00 0.00 48 1011.2
20260505162951 48 322 0.0 2.0 0.00 0.00 0.00 85 1014.7
20260505162903 48 295 2.0 6.0 0.00 0.00 0.00 83 1015.0
20260505162852 48 254 2.0 6.0 0.00 0.00 0.00 83 1015.0
20260505162831 78 247 4.0 8.0 0.00 0.00 0.00 47 1011.2
20260505162740 78 157 4.0 8.0 0.00 0.00 0.00 47 1011.0
20260505162632 78 141 4.0 8.0 0.00 0.00 0.00 47 1011.1
20260505162553 49 309 3.0 5.0 0.00 0.00 0.00 82 1014.8
20260505162506 49 292 1.0 3.0 0.00 0.00 0.00 83 1014.8
20260505162432 79 128 4.0 10.0 0.00 0.00 0.00 46 1011.1
20260505162311 79 159 4.0 10.0 0.00 0.00 0.00 45 1011.0
20260505162300 79 171 4.0 10.0 0.00 0.00 0.00 45 1011.0
20260505162128 79 93 4.0 12.0 0.00 0.00 0.00 44 1011.1
20260505162010 79 114 4.0 12.0 0.00 0.00 0.00 43 1011.0
20260505161933 79 163 4.0 12.0 0.00 0.00 0.00 43 1011.0
20260505161838 79 184 4.0 12.0 0.00 0.00 0.00 43 1011.0
20260505161420 79 139 4.0 12.0 0.00 0.00 0.00 42 1011.0
20260505161339 49 277 0.0 3.0 0.00 0.00 0.00 83 1015.1
20260505161232 79 215 4.0 12.0 0.00 0.00 0.00 42 1010.9
20260505161220 79 154 4.0 12.0 0.00 0.00 0.00 42 1010.9
20260505161133 49 38 2.0 4.0 0.00 0.00 0.00 82 1014.9
20260505161023 79 156 4.0 12.0 0.00 0.00 0.00 42 1010.9
20260505160858 50 301 2.0 4.0 0.00 0.00 0.00 80 1015.0
20260505160817 79 194 5.0 12.0 0.00 0.00 0.00 42 1011.0
20260505160729 79 225 5.0 12.0 0.00 0.00 0.00 42 1011.0
20260505160616 80 209 4.0 12.0 0.00 0.00 0.00 41 1010.8
20260505160503 51 287 2.0 4.0 0.00 0.00 0.00 79 1015.2
20260505160418 80 184 5.0 11.0 0.00 0.00 0.00 42 1010.9
20260505160232 80 207 5.0 11.0 0.00 0.00 0.00 41 1010.9
20260505160220 80 151 5.0 11.0 0.00 0.00 0.00 41 1010.9
20260505153330 81 148 5.0 13.0 0.00 0.00 0.00 42 1011.1
20260505153214 81 196 5.0 13.0 0.00 0.00 0.00 42 1011.2
20260505152837 81 178 5.0 10.0 0.00 0.00 0.00 41 1011.1
20260505152651 81 219 5.0 10.0 0.00 0.00 0.00 42 1011.1
20260505152304 82 158 5.0 10.0 0.00 0.00 0.00 42 1011.1
20260505152046 82 185 6.0 10.0 0.00 0.00 0.00 42 1011.1
20260505151904 82 177 6.0 12.0 0.00 0.00 0.00 41 1011.2
20260505151822 82 186 6.0 12.0 0.00 0.00 0.00 41 1011.2
20260505151724 82 208 6.0 12.0 0.00 0.00 0.00 41 1011.1
20260505151539 83 207 5.0 12.0 0.00 0.00 0.00 40 1011.1
20260505151410 83 163 5.0 12.0 0.00 0.00 0.00 38 1011.2
20260505151359 83 152 5.0 12.0 0.00 0.00 0.00 38 1011.2
20260505151138 83 194 4.0 12.0 0.00 0.00 0.00 39 1011.2
20260505150955 83 157 4.0 10.0 0.00 0.00 0.00 39 1011.2
20260505150926 83 176 4.0 10.0 0.00 0.00 0.00 39 1011.2
20260505150736 83 195 3.0 9.0 0.00 0.00 0.00 39 1011.2
20260505150555 83 225 4.0 9.0 0.00 0.00 0.00 39 1011.2
20260505150156 83 162 4.0 10.0 0.00 0.00 0.00 40 1011.2